Terug naar catalogus

STARLINK-2251

ActiefCommunicatieVLEO
NORAD 48594·PAYLOAD·🇺🇸 United States

Gelanceerd May 15, 2021 vanaf Cape Canaveral Space Force Station

Loading…

Volgende Passages (komende 24 uur)

TLE

VersSource: CelesTrak SupGP

Epoch: Sep 14, 2026, 20:36 UTC

1 48594C 21041AT  26257.85881944 -.00028535  00000+0 -91759-3 0  2572
2 48594  53.1599 315.5311 0001304  80.0752 145.4052 15.31717369    18

Volg STARLINK-2251 in realtime met AllMySat

Download on the App Store